Auburn, AL

2:45 AM CDT on August 24, 2019 (GMT -0500)
Auburn-opelika-pitts

Weather History for KAUO - July, 2019

Change the Weather History Date:

Tuesday, July 16, 2019

  Actual Average Record
Temperature  
Mean Temperature 82 °F -  
Max Temperature 92 °F - 98 °F (1980)
Min Temperature 72 °F - 52 °F (1967)
Cooling Degree Days 17    
Month to date cooling degree days 258  
Year to date cooling degree days 1089  
Since 1 June cooling degree days 673  
Growing Degree Days 32 (Base 50)    
Moisture  
Dew Point 72 °F    
Average Humidity 76    
Maximum Humidity 93    
Minimum Humidity 52    
Precipitation  
Precipitation 0.03 in - 1.68 in (1962)
Month to date precipitation 2.60  
Year to date precipitation 24.54  
Sea Level Pressure  
Sea Level Pressure 30.17 in    
Wind  
Wind Speed 5 mph (SSW)    
Max Wind Speed 12 mph    
Max Gust Speed 30 mph    
Visibility 10 miles    
Events      
T = Trace of Precipitation, MM = Missing Value Source: NWS Daily Summary

Daily Weather History Graph

Daily Weather History Graph

Search for Another Location

Airport or City:

Astronomy

Jul. 16, 2019 Rise Set
Actual Time 5:45 AM CDT 7:49 PM CDT
Civil Twilight 5:17 AM CDT 8:17 PM CDT
Nautical Twilight 4:43 AM CDT 8:51 PM CDT
Astronomical Twilight 4:07 AM CDT 9:27 PM CDT
Moon 7:54 PM CDT (7/16) 5:24 AM CDT (7/16)
Length of Visible Light 15h 00m
Length of Day
14h 04m
Full, 100% of the Moon is Illuminated
Jul 16
Full
Jul 16
Full
Jul 24
Last Quarter
Jul 31
New
Aug 7
First Quarter

Hourly Weather History & Observations

Time (CDT) Temp. Heat Index Dew Point Humidity Pressure Visibility Wind Dir Wind Speed Gust Speed Precip Events Conditions
12:56 AM 75.9 °F - 72.0 °F 87% 30.17 in 10.0 mi SSE 3.5 mph - N/A   Clear
1:56 AM 75.0 °F - 70.0 °F 84% 30.15 in 10.0 mi SSE 4.6 mph - N/A   Clear
2:56 AM 73.9 °F - 70.0 °F 87% 30.15 in 10.0 mi Calm Calm - N/A   Clear
3:56 AM 73.0 °F - 70.0 °F 90% 30.17 in 10.0 mi Calm Calm - N/A   Clear
4:56 AM 72.0 °F - 70.0 °F 93% 30.18 in 10.0 mi Calm Calm - N/A   Clear
5:56 AM 72.0 °F - 70.0 °F 93% 30.19 in 10.0 mi Calm Calm - N/A   Clear
6:56 AM 75.0 °F - 72.0 °F 90% 30.21 in 10.0 mi SW 3.5 mph - N/A   Clear
7:56 AM 78.1 °F - 73.9 °F 87% 30.22 in 10.0 mi West 5.8 mph - N/A   Clear
8:56 AM 81.0 °F 85.8 °F 73.0 °F 77% 30.22 in 10.0 mi SSW 6.9 mph - N/A   Clear
9:56 AM 82.9 °F 88.8 °F 73.0 °F 72% 30.22 in 10.0 mi SW 6.9 mph - N/A   Clear
10:56 AM 86.0 °F 91.5 °F 71.1 °F 61% 30.22 in 10.0 mi SW 10.4 mph - N/A   Clear
11:56 AM 87.1 °F 92.8 °F 71.1 °F 59% 30.21 in 10.0 mi WSW 11.5 mph 17.3 mph N/A   Scattered Clouds
12:56 PM 89.1 °F 96.0 °F 72.0 °F 57% 30.20 in 10.0 mi SSW 9.2 mph 17.3 mph N/A   Partly Cloudy
1:56 PM 90.0 °F 96.9 °F 72.0 °F 55% 30.18 in 10.0 mi SW 10.4 mph - N/A   Clear
2:56 PM 90.0 °F 96.9 °F 72.0 °F 55% 30.16 in 10.0 mi South 9.2 mph - N/A   Clear
3:56 PM 91.0 °F 97.6 °F 71.1 °F 52% 30.14 in 10.0 mi SW 6.9 mph - N/A   Partly Cloudy
4:56 PM 90.0 °F 96.4 °F 71.1 °F 54% 30.12 in 10.0 mi South 6.9 mph - N/A   Scattered Clouds
5:56 PM 91.0 °F 98.2 °F 72.0 °F 53% 30.12 in 10.0 mi WSW 6.9 mph - N/A   Partly Cloudy
6:56 PM 78.1 °F - 73.9 °F 87% 30.14 in 10.0 mi East 5.8 mph - 0.03 in   Scattered Clouds
7:56 PM 80.1 °F 85.1 °F 75.0 °F 85% 30.14 in 10.0 mi Calm Calm - N/A   Clear
8:56 PM 79.0 °F - 75.0 °F 88% 30.16 in 10.0 mi Calm Calm - N/A   Mostly Cloudy
9:56 PM 79.0 °F - 73.0 °F 82% 30.18 in 10.0 mi SSE 4.6 mph - N/A   Clear
10:56 PM 78.1 °F - 73.0 °F 84% 30.17 in 10.0 mi SSE 3.5 mph - N/A   Clear
11:56 PM 78.1 °F - 73.0 °F 84% 30.16 in 10.0 mi SSE 4.6 mph - N/A   Clear